Location: Capannuccia
(43.7000°N, 11.3000°E)
Time: 13:34:36
(UTC+00:00)

Cosmos 2227 Rocket - Pass Details

Date: 07 June 2020
Orbit: 838 x 846 km, 71.0° (Epoch: 15 July)

Event Time Altitude Azimuth Distance (km) Brightness Sun altitude
Rises 00:02:22 0° 326° (NW) 3,415 6.0 -22.6°
Reaches altitude 10° 00:05:03 10° 317° (NW) 2,476 5.0 -22.5°
Maximum altitude 00:10:00 32° 256° (WSW) 1,424 3.1 -22.3°
Enters shadow 00:10:24 31° 248° (WSW) 1,433 3.1 -22.3°
